Dewpoint
13 13 8 12 12 11 11 11 11 11 10 10 10 10 10 9 8 6 5 5 4 3 2 2 2 3 3 2 2 2 3 4 3 4 6 7 10 10 8 7 11 11 7
13 14 9 12 14 12 12 12 11 10 10 10 9 10 9 8 6 5 5 4 6 7 6 3 2 2 2 2 2 2 2 3 3 7 8 9 10 10 9 8 9 9 8
15 14 9 11 13 13 13 12 11 10 9 10 10 9 8 6 5 5 5 8 12 9 6 7 7 5 4 3 3 2 2 2 4 9 9 12 13 11 10 9 8 8 8
15 15 14 10 10 11 11 10 10 10 8 9 9 8 6 6 6 6 6 6 7 8 8 8 8 8 9 9 7 5 4 3 3 8 11 11 12 10 11 10 9 8 8
15 15 14 5 6 8 8 9 9 8 10 8 7 6 6 6 7 7 7 8 9 9 8 8 8 8 7 7 9 10 9 6 4 11 12 13 11 12 11 11 10 9 9
14 14 9 4 7 10 10 10 12 8 9 7 7 7 8 7 8 8 8 8 8 7 5 0 -3 -4 -5 -6 -6 -1 8 10 12 13 13 12 12 12 11 11 11 11 10
14 14 7 7 13 13 12 12 12 8 7 6 7 7 8 8 9 9 8 7 5 2 -4 -7 -9 -9 -10 -10 -10 -9 -6 8 12 12 11 11 12 12 12 12 11 12 11
12 13 10 4 8 12 12 12 10 9 11 11 7 7 8 10 10 8 7 6 3 -4 -8 -10 -11 -11 -11 -12 -12 -12 -10 1 10 12 12 12 12 12 12 12 12 12 12
11 12 12 7 7 7 8 9 11 10 9 10 8 8 10 11 9 8 7 5 -2 -8 -10 -11 -11 -12 -12 -12 -12 -12 -10 -0 9 9 10 11 11 11 11 11 11 11 11
11 12 13 13 12 11 11 12 11 11 13 11 9 10 11 10 9 8 7 2 -8 -10 -11 -11 -11 -11 -11 -11 -11 -10 -6 3 9 8 9 9 7 3 2 3 5 5 6
14 13 13 13 13 12 12 11 12 12 12 12 13 12 11 11 10 8 5 -4 -10 -10 -11 -11 -11 -11 -11 -12 -11 -9 2 7 6 6 7 0 -2 -1 -2 -5 -8 -7 -7
14 13 13 13 13 13 12 12 13 12 12 12 12 12 12 11 10 7 3 -5 -10 -10 -10 -11 -11 -11 -5 -3 -10 -3 5 5 5 8 8 4 4 8 6 0 -4 -7 -9
13 14 13 13 13 12 12 12 13 13 12 12 12 12 12 11 10 5 4 -4 -9 -10 -10 -9 -10 1 3 3 3 4 4 4 6 7 7 7 8 7 2 -5 -11 -13 -14
13 12 13 13 13 12 12 12 12 12 12 11 12 13 12 11 8 7 3 -6 -8 -8 -6 -8 -8 -9 -9 -8 -5 0 4 5 6 6 7 8 7 4 -4 -7 -13 -16 -17
13 13 13 12 12 12 11 11 11 12 12 12 12 12 12 11 10 9 2 -6 -6 -7 -6 -5 -7 -8 -9 -8 -6 0 4 5 5 5 5 5 3 -4 -9 -9 -11 -11 -14
13 13 13 12 12 12 11 11 11 12 11 11 11 12 12 11 9 6 -0 -4 -5 -5 -3 -1 -0 3 3 1 -4 -1 2 4 4 5 4 -2 -5 -8 -8 -8 -9 -10 -10
13 13 13 11 11 12 11 11 11 11 12 12 11 12 11 9 7 4 -2 -4 -4 -5 -6 -0 -1 4 4 4 2 -0 0 1 3 4 3 2 -6 -6 -6 -7 -8 -11 -8
12 13 13 11 11 12 11 10 10 11 11 11 10 11 9 6 3 -0 -1 -2 -3 -5 -6 -5 1 4 4 4 4 3 3 3 2 3 3 1 0 -1 -5 -6 -7 -9 -12
12 12 12 12 11 11 12 11 10 10 11 9 8 7 4 3 1 -0 1 -2 -4 -5 -6 -4 1 4 4 4 3 3 3 3 2 1 -1 -3 -4 -4 -4 -5 -6 -8 -13
11 12 12 12 11 11 12 11 10 10 7 6 5 5 2 1 0 0 1 -2 -4 -2 -0 -1 2 3 4 3 2 3 2 2 1 -0 -2 -3 -3 -4 -3 -4 -5 -9 -16
9 12 12 12 12 10 11 11 10 9 6 5 5 3 1 2 1 0 1 -2 -3 -2 -1 -4 -2 4 4 2 2 2 1 1 0 -1 -2 -3 -3 -3 -4 -4 -6 -7 -4
8 10 12 11 11 11 11 11 10 9 6 5 4 3 3 2 1 0 1 -1 -3 1 1 -4 0 3 3 2 1 1 0 0 -0 -1 -2 -3 -3 -3 -3 -5 -9 -11 -5
9 10 11 10 10 10 11 11 10 7 6 5 5 4 3 2 0 -0 -1 -0 -1 1 -2 -4 -0 2 2 2 1 -0 -0 -1 -1 -1 -2 -3 -3 -3 -3 -4 -9 -10 -8
5 5 7 9 9 9 10 10 8 7 6 5 4 3 2 0 -1 -1 -2 -3 -4 -3 -3 -6 1 2 2 2 1 -0 0 -0 -2 -2 -2 -2 -3 -4 -4 -4 -5 -6 -5
4 4 5 6 8 9 9 8 7 6 5 5 4 2 1 0 -1 -1 -2 -2 -4 -6 -8 -8 -7 -0 1 1 1 0 0 -0 -1 -3 -3 -3 -4 -4 -4 -5 -5 -5 -5
5 5 5 5 6 7 8 7 6 5 5 4 3 3 3 3 2 1 -0 -2 -3 -5 -9 -11 -9 -9 -6 1 1 0 0 -1 -1 -2 -3 -3 -4 -5 -5 -5 -5 -5 -5
Wind_Speed
15 20 25 26 25 24 22 20 19 17 17 16 16 15 14 12 11 10 10 9 8 8 7 7 7 6 6 6 5 5 6 6 6 7 8 8 8 8 8 8 13 6 9
18 20 25 24 25 25 23 21 20 18 17 16 15 15 14 13 13 12 10 9 7 7 6 6 6 6 5 5 5 5 5 5 6 7 7 6 5 6 6 7 7 6 7
21 21 26 24 24 24 24 21 21 20 18 16 16 16 15 14 13 11 9 9 10 7 4 3 4 4 4 4 4 4 4 5 6 6 6 5 3 3 4 4 4 4 6
19 19 19 23 22 22 21 21 21 19 18 18 17 16 15 12 10 9 9 7 5 5 5 4 4 3 3 5 4 3 4 4 5 6 4 5 2 2 3 2 2 3 4
17 18 18 20 19 20 20 20 20 20 19 19 18 16 14 12 11 9 8 6 5 5 4 4 4 3 2 2 3 4 3 4 5 8 4 6 7 3 4 1 2 2 2
18 18 19 20 20 19 18 17 18 19 18 17 16 13 12 11 10 9 7 7 6 5 5 5 4 4 4 3 3 3 3 5 11 6 8 6 4 3 3 2 1 1 1
18 17 20 20 18 17 18 19 18 17 18 18 17 15 13 12 9 8 8 7 7 6 6 5 5 4 3 3 3 4 6 8 7 6 7 6 5 3 3 2 2 2 2
21 21 22 22 20 19 18 19 19 19 16 16 16 14 13 12 11 10 9 8 7 7 6 6 5 5 5 5 5 5 7 9 6 5 6 8 5 4 3 2 2 3 5
21 21 20 23 23 21 21 22 21 19 19 17 16 14 14 13 12 11 10 10 9 8 7 7 6 6 5 5 5 6 8 12 9 7 5 4 5 7 4 5 6 7 8
22 19 17 17 18 18 19 19 20 19 19 19 17 17 16 15 13 12 10 11 9 8 8 7 7 6 5 5 6 6 8 11 10 9 6 6 4 1 4 6 7 7 9
22 21 20 20 19 20 19 21 20 19 19 18 17 17 14 14 14 12 14 11 10 9 8 8 7 6 6 6 7 8 11 9 9 8 6 4 1 0 3 5 6 8 9
25 26 21 21 21 21 23 21 23 23 22 21 19 17 15 15 14 15 12 11 11 11 10 9 8 7 7 8 9 8 9 10 10 9 11 7 10 9 5 1 4 4 6
24 25 26 26 25 24 24 26 27 24 23 22 20 19 18 17 16 16 14 14 14 13 13 12 11 9 10 10 9 9 10 11 11 10 12 12 11 6 1 5 6 6 5
24 22 26 27 26 28 28 28 29 30 28 26 24 22 21 19 19 17 15 15 15 15 15 14 13 13 12 11 11 11 11 11 11 12 15 14 10 5 4 5 5 5 4
22 22 22 26 27 28 28 28 29 29 28 27 26 24 22 22 20 17 17 17 17 16 15 14 14 14 14 13 13 13 13 13 13 12 12 13 8 3 4 5 7 8 7
20 21 22 25 28 29 29 28 28 30 28 29 26 25 24 22 20 18 18 19 18 17 15 13 13 14 14 14 15 14 13 13 13 12 10 10 4 1 4 7 8 8 9
21 21 27 26 26 30 27 25 25 27 27 27 27 27 25 23 22 21 21 20 19 19 18 15 15 13 14 15 16 16 15 14 14 13 10 8 6 3 5 7 8 10 10
20 23 22 23 26 30 25 22 25 29 28 28 26 27 26 23 22 21 20 20 20 20 20 18 17 16 15 15 15 15 14 13 13 12 10 8 7 4 4 6 7 8 8
19 21 22 22 23 27 31 29 27 28 25 22 23 24 24 23 23 22 20 21 21 22 21 19 16 17 17 17 16 15 14 13 12 10 8 6 6 6 5 5 6 7 5
17 19 22 21 24 26 31 31 29 30 24 21 21 20 24 24 25 24 21 24 23 21 19 20 19 18 18 18 17 16 14 12 10 10 8 6 4 3 5 6 8 8 5
13 16 22 20 23 26 32 34 33 32 22 22 19 23 25 24 23 24 21 23 24 22 22 24 23 22 20 20 19 16 13 11 11 9 8 6 4 2 2 5 6 7 8
6 11 16 19 24 29 30 35 35 33 22 19 19 24 24 24 23 23 20 20 23 18 21 25 24 23 22 23 20 15 11 9 7 8 7 7 6 5 5 5 6 6 7
3 5 10 16 25 26 29 36 37 36 35 30 29 25 24 23 23 23 24 21 21 19 21 24 24 23 24 23 21 8 10 8 15 8 8 6 5 5 5 4 5 5 7
6 6 8 11 16 21 28 35 38 38 34 30 27 27 29 28 25 23 21 22 22 20 21 24 21 21 20 24 23 20 11 14 12 11 11 8 6 4 5 5 5 6 8
7 8 10 13 13 18 23 29 34 34 32 33 30 21 17 16 15 13 14 17 20 22 24 24 24 22 19 19 21 17 12 9 12 10 16 14 11 8 6 6 6 7 7
6 4 4 7 11 15 18 21 23 27 25 19 16 18 23 25 24 24 23 18 20 22 22 22 24 24 23 18 17 15 14 12 10 11 10 16 13 9 7 5 6 7 8
Wind_Direction
181 181 175 171 171 173 175 174 172 171 174 176 178 177 177 176 175 172 166 162 163 162 154 151 152 159 155 138 136 137 138 139 136 130 126 120 109 88 83 81 74 60 72
176 180 177 175 175 176 178 177 178 176 179 180 182 181 181 181 177 175 172 167 161 151 157 162 159 169 152 140 142 138 141 144 142 138 129 114 111 94 88 86 92 74 70
171 178 177 178 180 179 180 181 185 186 185 185 185 184 184 183 182 183 173 163 165 172 153 141 148 166 147 146 155 150 147 148 149 150 129 105 193 114 100 88 71 66 63
166 167 173 179 183 183 182 184 186 189 187 186 187 186 188 186 185 185 186 191 180 164 160 171 193 198 165 156 161 163 157 149 144 144 94 147 187 193 175 107 54 59 54
162 165 177 178 183 184 185 186 187 185 189 185 189 190 191 194 195 196 197 197 193 186 172 175 193 194 198 189 176 172 164 145 118 90 145 154 173 177 175 161 86 96 99
168 170 180 179 182 182 180 182 187 185 188 189 193 194 198 202 203 204 205 202 202 197 191 179 179 172 169 165 167 168 159 137 97 118 122 139 143 155 188 208 232 231 286
166 170 178 179 177 178 182 183 185 192 199 197 196 199 208 211 211 215 215 214 204 199 197 184 176 170 164 157 159 151 148 138 116 141 116 118 119 142 194 197 208 211 229
182 175 182 186 187 183 185 188 190 196 196 195 203 204 212 212 214 216 218 215 208 206 197 187 175 163 154 149 144 143 144 137 116 138 148 152 163 167 135 180 251 241 253
186 181 185 190 192 194 195 197 196 197 202 204 210 212 214 218 220 219 216 211 208 207 191 180 173 162 151 145 137 136 140 141 123 104 83 126 205 226 247 250 249 241 256
189 189 186 186 190 193 199 199 202 206 201 208 214 219 219 220 223 220 216 214 211 201 186 176 169 165 155 146 134 131 130 117 113 114 108 150 181 169 176 213 234 248 258
197 196 193 193 193 194 198 207 209 215 211 214 221 227 215 221 218 211 213 207 207 204 191 184 176 169 164 151 139 134 113 117 106 103 95 129 207 77 237 239 245 253 263
203 197 195 195 195 200 202 206 209 216 215 217 228 227 226 223 212 215 212 210 210 204 199 194 184 170 144 144 143 128 123 115 108 108 95 70 98 120 103 253 261 281 295
206 209 204 203 208 212 219 216 211 218 220 226 231 237 241 226 222 217 223 217 209 207 204 196 183 158 158 146 143 138 129 117 120 116 111 123 146 139 162 297 326 343 330
214 212 214 214 220 219 223 227 226 226 229 233 234 236 237 226 223 226 225 217 211 205 203 196 188 184 174 169 159 143 130 126 125 120 128 154 162 173 20 8 19 26 11
216 213 207 222 223 226 228 232 235 232 234 236 238 237 236 228 229 229 226 216 215 211 205 197 192 183 177 171 160 145 135 129 125 123 127 179 207 287 24 24 30 30 26
221 217 212 222 224 227 233 239 236 236 240 237 241 237 232 232 233 232 225 219 215 210 203 196 186 173 160 160 155 150 139 132 129 125 130 177 197 160 45 37 35 32 27
223 222 222 220 227 229 235 233 230 231 231 235 237 236 233 233 233 228 219 219 216 211 205 191 182 171 161 153 157 155 152 147 143 134 128 119 159 113 61 45 37 36 53
227 225 225 221 225 230 225 226 227 233 233 231 229 233 231 230 228 219 215 214 217 213 202 195 182 172 166 158 151 143 141 144 144 139 133 129 117 81 64 43 34 27 46
235 236 225 225 225 230 231 235 237 239 233 221 225 229 228 226 225 218 215 217 215 207 199 191 185 178 170 162 155 147 141 139 135 137 146 154 144 115 60 25 13 4 10
238 235 240 225 226 230 233 234 236 237 227 220 223 220 224 222 221 218 216 217 211 203 194 186 183 178 174 165 155 147 146 144 145 137 135 130 124 92 60 48 30 0 351
241 237 245 232 229 232 231 231 233 233 218 218 214 219 222 221 223 223 219 221 212 205 198 196 188 175 173 164 154 144 139 141 145 146 144 136 139 125 43 28 33 44 14
255 242 242 236 228 245 243 237 237 235 215 215 215 222 223 227 227 224 218 218 213 201 199 195 185 175 175 168 165 152 149 149 156 160 161 152 134 105 71 40 32 50 61
349 261 243 242 238 254 248 235 229 224 226 219 222 223 220 221 222 220 219 211 211 204 202 196 188 183 181 178 181 169 170 198 171 182 179 170 153 132 97 60 52 65 84
3 328 296 264 262 258 251 242 232 226 220 214 214 210 216 215 210 215 222 224 219 206 203 198 189 190 186 191 184 193 180 177 180 174 194 182 171 141 125 101 79 77 84
24 350 317 296 277 260 253 246 240 228 223 220 215 212 217 220 208 214 221 224 224 215 207 199 200 193 198 197 195 199 188 190 191 187 178 183 179 173 154 132 129 107 100
24 8 347 300 282 271 263 258 249 239 230 231 224 225 230 227 220 214 222 229 224 222 210 204 205 209 199 196 201 208 205 200 211 198 206 184 175 175 155 139 136 132 132
Height
1508 1508 1509 1512 1515 1519 1523 1526 1529 1531 1533 1534 1535 1536 1537 1538 1539 1540 1540 1540 1540 1540 1540 1541 1541 1541 1542 1542 1542 1542 1543 1543 1543 1544 1544 1544 1544 1544 1544 1544 1543 1544 1542
1508 1509 1509 1513 1515 1518 1521 1524 1528 1530 1533 1534 1536 1537 1538 1539 1539 1540 1541 1541 1541 1540 1540 1541 1541 1541 1542 1543 1543 1543 1544 1544 1545 1545 1545 1545 1545 1545 1545 1545 1545 1544 1544
1506 1509 1509 1512 1515 1518 1520 1524 1527 1528 1529 1534 1536 1538 1538 1539 1540 1540 1541 1541 1541 1541 1541 1542 1541 1541 1543 1544 1544 1544 1544 1545 1546 1546 1547 1550 1548 1547 1546 1546 1546 1546 1545
1506 1508 1512 1513 1517 1520 1523 1525 1527 1531 1530 1532 1536 1537 1538 1539 1540 1540 1541 1541 1541 1541 1542 1542 1542 1542 1543 1543 1543 1544 1545 1546 1546 1547 1549 1552 1551 1547 1547 1547 1546 1547 1546
1507 1511 1514 1516 1519 1522 1524 1526 1528 1528 1535 1533 1536 1537 1538 1538 1539 1540 1541 1542 1542 1542 1542 1542 1542 1543 1543 1543 1543 1544 1545 1546 1547 1549 1550 1550 1548 1547 1548 1547 1547 1547 1547
1509 1513 1513 1516 1518 1522 1524 1526 1529 1529 1533 1534 1536 1538 1539 1539 1539 1540 1541 1541 1541 1542 1541 1541 1541 1542 1543 1543 1543 1543 1545 1546 1548 1549 1548 1548 1548 1547 1548 1547 1547 1547 1547
1509 1512 1512 1516 1520 1523 1524 1526 1528 1530 1532 1531 1533 1535 1538 1539 1539 1540 1541 1541 1541 1541 1542 1541 1541 1541 1542 1542 1543 1542 1544 1547 1550 1547 1548 1548 1547 1547 1546 1547 1547 1546 1546
1505 1508 1509 1512 1517 1520 1523 1526 1526 1528 1531 1531 1533 1534 1537 1539 1539 1539 1540 1541 1541 1541 1541 1541 1541 1541 1541 1542 1542 1542 1543 1545 1549 1547 1547 1547 1547 1547 1547 1547 1546 1546 1545
1504 1508 1509 1510 1513 1516 1520 1522 1524 1525 1526 1531 1532 1533 1536 1537 1538 1538 1539 1540 1540 1540 1541 1541 1541 1541 1541 1542 1542 1542 1543 1545 1549 1550 1549 1547 1546 1546 1547 1546 1545 1544 1543
1504 1508 1511 1514 1516 1518 1521 1523 1524 1525 1526 1527 1529 1532 1534 1535 1536 1537 1538 1539 1539 1540 1540 1541 1541 1542 1542 1542 1542 1543 1544 1546 1549 1550 1549 1545 1545 1546 1545 1543 1542 1542 1542
1503 1506 1509 1512 1514 1517 1519 1520 1523 1525 1527 1528 1529 1531 1533 1533 1534 1535 1534 1536 1538 1539 1539 1539 1540 1542 1542 1542 1542 1543 1545 1547 1549 1550 1547 1545 1545 1545 1543 1542 1542 1541 1541
1499 1502 1506 1511 1513 1515 1516 1518 1520 1522 1523 1524 1525 1529 1530 1531 1532 1532 1535 1535 1536 1537 1538 1538 1539 1540 1541 1542 1543 1544 1547 1547 1549 1549 1546 1545 1545 1544 1542 1541 1540 1539 1539
1497 1500 1504 1507 1509 1512 1514 1515 1518 1519 1520 1521 1523 1526 1527 1528 1529 1530 1532 1534 1534 1535 1536 1536 1537 1539 1540 1542 1542 1543 1544 1547 1548 1548 1547 1547 1545 1543 1542 1541 1540 1539 1538
1495 1498 1501 1502 1505 1505 1508 1511 1512 1514 1515 1517 1519 1520 1521 1524 1525 1527 1529 1530 1531 1533 1534 1534 1534 1534 1535 1537 1538 1540 1543 1547 1547 1547 1546 1545 1543 1542 1541 1540 1539 1539 1538
1493 1496 1498 1498 1500 1503 1504 1506 1509 1511 1513 1515 1516 1518 1519 1520 1521 1523 1525 1527 1528 1530 1532 1533 1533 1532 1532 1533 1534 1537 1540 1543 1545 1547 1544 1544 1542 1542 1541 1540 1539 1538 1537
1491 1492 1494 1494 1496 1497 1500 1502 1505 1508 1510 1511 1512 1514 1515 1517 1520 1522 1523 1523 1525 1528 1530 1532 1532 1532 1531 1531 1532 1534 1537 1540 1542 1544 1544 1541 1543 1543 1541 1540 1540 1539 1537
1488 1489 1486 1488 1489 1492 1494 1496 1498 1500 1503 1507 1508 1509 1511 1513 1515 1515 1517 1519 1521 1523 1526 1529 1530 1533 1532 1531 1530 1531 1533 1537 1539 1541 1543 1541 1540 1540 1540 1540 1539 1539 1539
1483 1484 1486 1485 1485 1487 1490 1492 1494 1495 1498 1500 1501 1504 1506 1508 1510 1512 1513 1516 1517 1519 1521 1525 1527 1529 1531 1532 1532 1532 1533 1535 1536 1539 1541 1542 1542 1541 1539 1538 1538 1539 1539
1481 1480 1480 1483 1484 1484 1486 1488 1491 1493 1495 1496 1497 1500 1502 1504 1507 1509 1510 1511 1512 1514 1516 1519 1526 1528 1529 1529 1531 1532 1533 1536 1537 1538 1538 1539 1539 1540 1540 1539 1538 1536 1536
1475 1477 1475 1478 1479 1479 1481 1484 1486 1487 1490 1493 1495 1497 1496 1500 1501 1504 1505 1504 1507 1510 1512 1513 1520 1523 1526 1527 1529 1530 1532 1534 1536 1536 1537 1538 1538 1538 1538 1539 1540 1536 1535
1469 1472 1472 1473 1476 1475 1475 1477 1479 1482 1485 1487 1489 1491 1493 1495 1497 1500 1502 1503 1504 1504 1506 1508 1512 1515 1521 1523 1527 1530 1530 1531 1534 1535 1536 1538 1537 1536 1537 1537 1538 1539 1538
1468 1469 1469 1470 1471 1470 1472 1473 1474 1477 1480 1483 1485 1485 1490 1493 1494 1496 1499 1500 1501 1503 1503 1503 1508 1513 1515 1515 1524 1528 1532 1534 1534 1536 1536 1536 1537 1537 1535 1535 1535 1535 1536
1464 1465 1464 1465 1466 1467 1468 1466 1466 1469 1471 1474 1477 1480 1484 1487 1490 1493 1493 1495 1496 1498 1499 1501 1503 1507 1512 1514 1516 1522 1527 1525 1531 1533 1536 1535 1537 1536 1534 1533 1534 1533 1531
1462 1461 1460 1461 1462 1462 1462 1461 1462 1461 1463 1465 1470 1472 1474 1477 1478 1484 1489 1492 1492 1493 1495 1497 1501 1504 1508 1510 1513 1513 1517 1519 1524 1530 1533 1532 1534 1535 1533 1533 1535 1534 1533
1462 1460 1458 1457 1457 1457 1457 1458 1458 1459 1460 1460 1462 1466 1473 1477 1473 1478 1485 1488 1492 1491 1490 1491 1496 1500 1504 1507 1510 1510 1515 1518 1520 1522 1526 1528 1531 1532 1532 1532 1533 1531 1535
1463 1459 1455 1455 1454 1453 1453 1453 1454 1456 1458 1460 1460 1460 1464 1465 1463 1470 1475 1484 1488 1490 1487 1486 1491 1497 1497 1503 1506 1510 1512 1515 1518 1521 1523 1525 1528 1532 1531 1533 1535 1534 1534